Location: ???????
(55.4362°N, 38.1183°E)
Time: 16:41:34
(UTC+00:00)

BEESAT - Visible Passes

Search period start: 03 December 2022 00:00
Search period end: 13 December 2022 00:00
Orbit: 699 x 706 km, 98.5° (Epoch: 02 December)

Date Brightness Start Highest point End Pass type
(mag) Time Alt. Az. Time Alt. Az. Time Alt. Az.
03 Dec ? 03:29:52 10° E 03:33:24 21° NE 03:36:57 10° N visible
04 Dec ? 02:39:06 10° NE 02:39:15 10° NE 02:39:25 10° NE visible
04 Dec ? 04:11:22 10° SE 04:15:47 39° ENE 04:20:14 10° N visible
05 Dec ? 03:18:12 10° E 03:21:22 18° NE 03:24:32 10° N visible
06 Dec ? 03:59:28 10° ESE 04:03:41 32° ENE 04:07:56 10° N visible
07 Dec ? 03:06:40 10° E 03:09:20 15° NE 03:12:02 10° NNE visible
07 Dec ? 04:41:31 10° SSE 04:46:14 64° ENE 04:51:00 10° NNW visible
08 Dec ? 03:47:37 10° ESE 03:51:36 27° ENE 03:55:35 10° N visible
09 Dec ? 02:55:17 10° ENE 02:57:20 13° NE 02:59:25 10° NNE visible
09 Dec ? 04:29:27 10° SE 04:34:05 52° ENE 04:38:44 10° N visible
10 Dec ? 03:35:51 10° ESE 03:39:32 23° NE 03:43:13 10° N visible
11 Dec ? 02:44:14 10° NE 02:45:21 11° NE 02:46:28 10° NNE visible
11 Dec ? 04:17:27 10° SE 04:21:56 42° ENE 04:26:27 10° N visible
12 Dec ? 03:24:09 10° E 03:27:28 19° NE 03:30:48 10° N visible
